CZ-4 DEB, 26150

Orbit data source: Space-Track

CZ-4 DEB, 26150 is space debris in SSO originally from a launch on Thu, 14 Oct 1999 UTC launched from the Taiyaun Space Center, China (TSC). Debris objects in space refer to the collection of defunct objects orbiting the Earth. Examples of debris include non-operational satellites, rocket bodies, and fragments generated from explosions, collisions, or faulty payload assembly.

Loading next visibility...
CZ-4 DEB details
Identifier
26150, 1999-057AL
Orbit
SSO
Last TLE update21 hours ago
Origin
Flag of CNCNSA (CN / PRC)
ManufacturerUnknown
MissionSpacecraft
Bus & MotorUnknown
MassUnknown
Launch date (UTC)
1999-10-14 (25 years ago)
Launch vehicleUnknown
Launch site
Taiyaun Space Center, China (TSC)
Object type
Payload
Rocket body
Debris
Shape & HBRUnknown
Radar Cross SectionSmall (<0.1 m²)

Expand to show TLE details & history

TLE from 21 hours ago
0 CZ-4 DEB
1 26150U 99057AL  24355.73258486  .00000959  00000-0  61399-3 0  9990
2 26150  99.1247  81.5674 0343780  91.4137  56.8364 13.80141208240375
Epoch: 2024-12-20T17:34Z
Definitive object data (Epoch: 2024-12-20T17:34:55.331Z)
Latitude28.02811°
Longitude-87.07821°
Altitude834.935 km
Speed7.504 km/s
True Right ascension17h 45m 47s
True Declination27° 53' 14"
Sunlit
Object was in daylight at TLE epoch
Visualization TLE readout
Latitude80.53792°
Longitude-17.68807°
Altitude724.756 km
Speed7.628 km/s
Apparent Right ascension00h 42m 14s
Apparent Declination26° 36' 43"
Sunlit
Object is in daylight
Visualization observer readout
Local Sidereal Time13:13:32
Azimuth7.605° NNE
Elevation-23.074°
Doppler factor1
Orbital elements
Apogee altitude1,212.905 km
Perigee altitude708.322 km
Semi-major axis7,338.75 km
Eccentricity0.034378
Inclination99.1247°
RAAN81.5674°
Arg. of periapsis91.4137°
True anomaly60.21149°
Mean anomaly56.8364°
Eccentric anomaly58.51615°
Mean motion3.45231 °/min
BSTAR0.00061399
Orbital period104.28 mins
Loading maneuver chart data...
Loading historical data...
Loading historical data...
Loading historical data...
Loading historical data...
Loading historical data...
Loading historical data...
Loading historical data...

CZ-4 DEB Visibility forecast

Observer location: undefined°, undefined

Span
Click to sort rows by Start time (UTC) header in descending order
Start Az.
Max El. time (UTC)
Max El. Az.
Max El.
End time (UTC)
End Az.
7 mins2024-12-21 17:50:27.663Z50.89° ENE2024-12-21 17:53:27.663Z92.373° ESE21.03°2024-12-21 17:57:27.663Z144.477° SSE
8 mins2024-12-21 19:33:27.663Z350.689° N2024-12-21 19:36:27.663Z300.112° NW32.249°2024-12-21 19:41:27.663Z223.753° SW
8 mins2024-12-22 05:33:27.663Z146.179° SSE2024-12-22 05:37:27.663Z49.741° ENE40.018°2024-12-22 05:41:27.663Z355.122° N
|